{"data":{"norad_id":53836,"intl_designator":"2022-114U","name":"STARLINK-4778","alt_names":[],"object_type":"PAYLOAD","status":"ACTIVE","operator":null,"country":"US","launch_date":"2022-09-19","launch_site_code":"AFETR","launch_vehicle":null,"mission":null,"orbit_class":"UNKNOWN","rcs_meters":null,"size_class":null,"mass_kg":null,"dimensions":null,"purposes":["comms"],"wikipedia_slug":null,"has_3d_model":false,"image_url":null,"decayed_at":null,"tle_current":{"epoch":"2026-05-25T04:00:03.998880Z","epoch_age_seconds":56810,"freshness":"FRESH","line1":"1 53836U 22114U   26145.16671295  .00059420  00000+0  21637-2 0  9990","line2":"2 53836  53.2183 309.1883 0001133 110.7473 126.8019 15.27670002  5846","mean_motion":15.27670002,"eccentricity":0.0001133,"inclination_deg":53.2183,"raan_deg":309.1883,"arg_perigee_deg":110.7473,"mean_anomaly_deg":126.8019,"bstar":0.0021637,"rev_number":584,"period_min":94.261195029998,"perigee_km":482.00226905282,"apogee_km":483.55695275685,"semimajor_km":6860.9166109048,"source":"CELESTRAK","updated_at":"2026-05-25T13:38:17.572928Z"}}}